Hourly Weather Le Chesnay

Today, 24 January, Sunday

Time Temperature Precipitation Wind Pressure Humidity
00:00 -1°C° 0 mm 2 mps 737 mmHg 88%
01:00 -1°C° 0 mm 2 mps 737 mmHg 88%
02:00 -1°C° 0 mm 2 mps 736 mmHg 88%
03:00 -1°C° 0 mm 2 mps 736 mmHg 88%
04:00 -1°C° 0 mm 2 mps 736 mmHg 87%
05:00 -1°C° 0 mm 2 mps 736 mmHg 86%
06:00 +1°C° 0 mm 2 mps 736 mmHg 85%
07:00 -1°C° 1 mm 3 mps 736 mmHg 89%
08:00 -2°C° 1 mm 4 mps 735 mmHg 92%
09:00 -2°C° 1 mm 4 mps 735 mmHg 96%
10:00 -1°C° 0.2 mm 5 mps 735 mmHg 92%
11:00 0°C° 0.2 mm 5 mps 735 mmHg 88%
12:00 +1°C° 0.2 mm 5 mps 734 mmHg 85%
13:00 +1°C° 0.1 mm 5 mps 734 mmHg 82%
14:00 +1°C° 0.1 mm 5 mps 734 mmHg 80%
15:00 +1°C° 0.1 mm 6 mps 734 mmHg 77%
16:00 +1°C° 0 mm 6 mps 735 mmHg 81%
17:00 -1°C° 0 mm 6 mps 735 mmHg 84%
18:00 -2°C° 0 mm 6 mps 736 mmHg 87%
19:00 -2°C° 0 mm 6 mps 737 mmHg 87%
20:00 -1°C° 0 mm 5 mps 738 mmHg 86%
21:00 -2°C° 0 mm 5 mps 738 mmHg 85%
22:00 -2°C° 0 mm 4 mps 739 mmHg 86%
23:00 -1°C° 0 mm 3 mps 740 mmHg 88%

Tomorrow, 25 January, Monday

Time Temperature Precipitation Wind Pressure Humidity
00:00 -1°C° 0 mm 2 mps 741 mmHg 89%
01:00 -1°C° 0 mm 3 mps 741 mmHg 89%
02:00 -2°C° 0 mm 3 mps 742 mmHg 90%
03:00 -2°C° 0 mm 3 mps 742 mmHg 90%
04:00 -1°C° 0.1 mm 3 mps 743 mmHg 89%
05:00 -2°C° 0.1 mm 4 mps 743 mmHg 88%
06:00 -2°C° 0.1 mm 4 mps 743 mmHg 87%
07:00 -1°C° 0.1 mm 5 mps 743 mmHg 84%
08:00 -1°C° 0.1 mm 5 mps 744 mmHg 81%
09:00 0°C° 0.1 mm 5 mps 744 mmHg 78%
10:00 +1°C° 0 mm 6 mps 744 mmHg 75%
11:00 +2°C° 0 mm 6 mps 744 mmHg 72%
12:00 +3°C° 0 mm 6 mps 745 mmHg 69%
13:00 +3°C° 0.1 mm 6 mps 745 mmHg 71%
14:00 +3°C° 0.1 mm 6 mps 745 mmHg 73%
15:00 +3°C° 0.1 mm 5 mps 745 mmHg 75%
16:00 +2°C° 0 mm 5 mps 746 mmHg 79%
17:00 +1°C° 0 mm 4 mps 746 mmHg 82%
18:00 +1°C° 0 mm 3 mps 747 mmHg 85%
19:00 +1°C° 0 mm 3 mps 747 mmHg 86%
20:00 +1°C° 0 mm 3 mps 747 mmHg 86%
21:00 0°C° 0 mm 3 mps 748 mmHg 87%
22:00 0°C° 0 mm 3 mps 748 mmHg 87%
23:00 0°C° 0 mm 3 mps 748 mmHg 87%

Day after tomorrow, 26 January, Tuesday

Time Temperature Precipitation Wind Pressure Humidity
00:00 +1°C° 0 mm 2 mps 748 mmHg 86%
01:00 +1°C° 0 mm 2 mps 749 mmHg 87%
02:00 -1°C° 0 mm 2 mps 749 mmHg 88%
03:00 -1°C° 0 mm 2 mps 749 mmHg 89%
04:00 -1°C° 0 mm 2 mps 749 mmHg 91%
05:00 +1°C° 0 mm 2 mps 749 mmHg 92%
06:00 +1°C° 0 mm 2 mps 749 mmHg 93%
07:00 +1°C° 0 mm 2 mps 749 mmHg 93%
08:00 +2°C° 0 mm 2 mps 749 mmHg 92%
09:00 +2°C° 0 mm 2 mps 749 mmHg 92%
10:00 +2°C° 0 mm 3 mps 749 mmHg 89%
11:00 +3°C° 0 mm 3 mps 749 mmHg 87%
12:00 +3°C° 0 mm 4 mps 749 mmHg 85%
13:00 +4°C° 0.2 mm 4 mps 748 mmHg 86%
14:00 +4°C° 0.2 mm 4 mps 748 mmHg 87%
15:00 +3°C° 0.2 mm 5 mps 747 mmHg 88%
16:00 +3°C° 1.1 mm 5 mps 747 mmHg 88%
17:00 +3°C° 1.1 mm 5 mps 746 mmHg 89%
18:00 +3°C° 1.1 mm 6 mps 746 mmHg 89%
19:00 +4°C° 0.1 mm 6 mps 746 mmHg 90%
20:00 +4°C° 0.1 mm 6 mps 746 mmHg 91%
21:00 +5°C° 0.1 mm 6 mps 746 mmHg 92%
22:00 +6°C° 0 mm 5 mps 746 mmHg 92%
23:00 +6°C° 0 mm 5 mps 747 mmHg 92%

27 January, Wednesday

Time Temperature Precipitation Wind Pressure Humidity
00:00 +6°C° 0 mm 4 mps 747 mmHg 92%
01:00 +6°C° 0 mm 5 mps 747 mmHg 92%
02:00 +6°C° 0 mm 5 mps 748 mmHg 92%
03:00 +6°C° 0 mm 5 mps 748 mmHg 92%
04:00 +5°C° 0 mm 4 mps 748 mmHg 93%
05:00 +5°C° 0 mm 3 mps 749 mmHg 93%
06:00 +5°C° 0 mm 3 mps 749 mmHg 94%
07:00 +5°C° 0 mm 3 mps 749 mmHg 94%
08:00 +5°C° 0 mm 3 mps 750 mmHg 93%
09:00 +5°C° 0 mm 3 mps 750 mmHg 93%
10:00 +7°C° 0 mm 3 mps 750 mmHg 91%
11:00 +8°C° 0 mm 3 mps 751 mmHg 89%
12:00 +7°C° 0 mm 4 mps 751 mmHg 87%
13:00 +8°C° 0 mm 3 mps 750 mmHg 85%
14:00 +9°C° 0 mm 3 mps 750 mmHg 84%
15:00 +9°C° 0 mm 3 mps 750 mmHg 82%
16:00 +8°C° 0 mm 4 mps 750 mmHg 85%
17:00 +7°C° 0 mm 4 mps 750 mmHg 88%
18:00 +7°C° 0 mm 5 mps 749 mmHg 91%
19:00 +7°C° 0.1 mm 5 mps 749 mmHg 91%
20:00 +7°C° 0.1 mm 6 mps 749 mmHg 91%
21:00 +7°C° 0.1 mm 6 mps 748 mmHg 91%
22:00 +7°C° 2.1 mm 6 mps 747 mmHg 91%
23:00 +8°C° 2.1 mm 7 mps 746 mmHg 92%

28 January, Thursday

Time Temperature Precipitation Wind Pressure Humidity
00:00 +8°C° 2.1 mm 7 mps 746 mmHg 92%
01:00 +9°C° 0.5 mm 7 mps 745 mmHg 91%
02:00 +9°C° 0.5 mm 7 mps 745 mmHg 89%
03:00 +10°C° 0.5 mm 7 mps 744 mmHg 87%
04:00 +9°C° 0 mm 7 mps 744 mmHg 86%
05:00 +8°C° 0 mm 7 mps 745 mmHg 86%
06:00 +8°C° 0 mm 6 mps 745 mmHg 85%
07:00 +8°C° 0.2 mm 7 mps 744 mmHg 85%
08:00 +8°C° 0.2 mm 7 mps 744 mmHg 84%
09:00 +7°C° 0.2 mm 8 mps 744 mmHg 84%
10:00 +9°C° 0.3 mm 8 mps 744 mmHg 79%
11:00 +10°C° 0.3 mm 8 mps 745 mmHg 75%
12:00 +10°C° 0.3 mm 9 mps 745 mmHg 71%
13:00 +10°C° 0.1 mm 8 mps 745 mmHg 69%
14:00 +10°C° 0.1 mm 8 mps 745 mmHg 67%
15:00 +10°C° 0.1 mm 7 mps 746 mmHg 65%
16:00 +9°C° 0 mm 6 mps 746 mmHg 70%
17:00 +9°C° 0 mm 5 mps 746 mmHg 74%
18:00 +8°C° 0 mm 4 mps 747 mmHg 79%

29 January, Friday

Time Temperature Precipitation Wind Pressure Humidity
Show more

We Need Your Consent

Meteoprog and our Service Providers may store and access personal data such as cookies, device identifiers or other similar technologies on your device and process such data to personalise content and ads, as well as provide social media features and to analyse the traffic.

  • Store and/or access information on your device

    Cookies, device identifiers or other information can be stored or accessed on your device for the purposes indicated above.

  • Personalised ads and content, ad and content measurement, audience insights, and products development

    Ads and content can be personalised based on a profile. More data can be added to better personalise ads and content. Ad and content performance can be measured. Insights about the audience who saw the ads and content can be derived. Such data can be used to develop or improve user’s experience, systems and software.

By clicking ‘I Agree’ you will allow the use of indicated cookies, device identifiers, web beacons or other similar technologies. Your settings can be changed in the browser on your device.

For certain purposes, legitimate interests may be relied on, rather than consent. You can read more about this in our Privacy and Cookie Policy.